Startpagina
METAR-TAF:

METAR-TAF

Vliegvelden :

Ipiales, Colombia

breedte: 00-49N, lengte: 077-38W, hoogte: 2961 m

Actueel weer

Dit bericht is 45 minuten geleden gemaakt, om 16:00 UTC
Wind 6 kt uit het oosten
Temperatuur 17°C
Vochtigheid 59%
Druk 1028 hPa
Zicht 10 km of meer
Gebroken wolken op 1800 ft

METAR: SKIP 181600Z 09006KT 9999 BKN018 17/09 A3037

Tijdstip: 11:45 (16:45 UTC)


TAF: ontbreekt

Waarnemingen en weersverwachtingen van meer dan 4000 vliegvelden (METAR en TAF).

De beschikbare stations zijn de gele en rode punten op de kaart.

Ga met uw muis naar het station om de naam te zien.

Klik dan om waarnemingen en weersverwachtingen te zien.

kaart wijzigen: klik op de groene knoppen met een zwart kruis om in te zoomen, op de groene knop met een streepje om uit te zoomen of op de groene pijlen voor aangrenzende kaarten.


METAR-TAF: